[[[{"header":{"parameterUnit":"kt","parameterCategory":2,"dx":1,"dy":1,"la1":30.253999710083008,"la2":30.299108505249023,"lo1":-89.0895004272461,"lo2":-89.04439544677734,"nx":28,"ny":28,"refTime":"2022-09-18T21:00:00:Z","depth":0,"parameterNumber":1,"parameterNumberName":"U-component_of_WINDS"},"data":[-2.7096,-2.7226,-2.7249,-2.7409,-2.7456,-2.757,-2.7617,-2.7681,-2.7738,-2.7875,-2.7958,-2.7994,-2.8059,-2.8163,-2.8254,-2.8268,-2.8306,-2.8335,-2.8347,-2.8195,-2.8176,-2.8157,-2.8129,-2.8342,-2.8342,-2.8501,-2.8503,-2.8504,-2.6981,-2.703,-2.7121,-2.7225,-2.7303,-2.7289,-2.737,-2.7437,-2.7538,-2.7609,-2.7692,-2.7814,-2.7913,-2.797,-2.807,-2.8131,-2.8131,-2.8156,-2.8154,-2.8165,-2.8003,-2.7972,-2.8155,-2.8155,-2.8155,-2.8155,-2.8155,-2.8155,-2.678,-2.6857,-2.6934,-2.7033,-2.7092,-2.7161,-2.7239,-2.7282,-2.7371,-2.7479,-2.7488,-2.7603,-2.7679,-2.781,-2.7859,-2.795,-2.7925,-2.7961,-2.7971,-2.798,-2.7988,-2.7758,-2.7967,-2.7967,-2.7966,-2.7966,-2.7966,0,-2.664,-2.6655,-2.6744,-2.684,-2.6914,-2.6991,-2.7065,-2.7113,-2.7151,-2.7223,-2.733,-2.7395,-2.7523,-2.7626,-2.7725,-2.777,-2.7764,-2.7765,-2.779,-2.7789,-2.7775,-2.7786,-2.7523,-2.7759,-2.7758,-2.7757,-2.7756,-2.7755,-2.6441,-2.6528,-2.662,-2.6679,-2.6726,-2.6821,-2.6883,-2.691,-2.6974,-2.7069,-2.7136,-2.7239,-2.7324,-2.749,-2.754,-2.7636,-2.7634,-2.7722,-2.7649,-2.7643,-2.7639,-2.7635,-2.7644,-2.7737,-2.7739,-2.7741,-2.7743,0,-2.6327,-2.6365,-2.6508,-2.659,-2.6613,-2.6703,-2.6773,-2.6852,-2.6885,-2.6997,-2.7025,-2.7078,-2.7182,-2.7218,-2.7344,-2.736,-2.7509,-2.7503,-2.7483,-2.7485,-2.7569,-2.7561,-2.7831,-2.7869,-2.7646,-2.7648,-2.765,0,-2.6173,-2.6287,-2.6337,-2.6418,-2.6544,-2.6569,-2.6693,-2.6735,-2.6801,-2.6889,-2.6888,-2.6971,-2.7004,-2.7092,-2.7116,-2.7243,-2.7266,-2.7287,-2.7292,-2.7289,-2.7287,-2.7326,-2.7317,-2.7298,-2.7297,-2.7295,-2.7294,0,-2.5993,-2.6152,-2.6283,-2.6326,-2.6425,-2.6486,-2.653,-2.6604,-2.6665,-2.6748,-2.6788,-2.6883,-2.6936,-2.701,-2.704,-2.6989,-2.7196,-2.7132,-2.7217,-2.7217,-2.7264,-2.7261,-2.7488,-2.7293,-2.7292,-2.7292,-2.7291,0,-2.5876,-2.5961,-2.6144,-2.6227,-2.6268,-2.6354,-2.6451,-2.6532,-2.661,-2.6631,-2.6697,-2.6701,-2.6815,-2.6749,-2.6906,-2.6832,-2.6884,-2.6913,-2.692,-2.6935,-2.6862,-2.6988,-2.7199,-2.7224,-2.6945,-2.6942,-2.6939,0,-2.566,-2.5856,-2.5879,-2.6053,-2.6148,-2.6141,-2.6237,-2.6306,-2.6342,-2.6428,-2.6467,-2.6565,-2.6523,-2.656,-2.6632,-2.6677,-2.6773,-2.6664,-2.679,-2.6794,-2.6772,-2.6966,-2.699,-2.7148,-2.6903,-2.6907,-2.6909,0,-2.5498,-2.5619,-2.5649,-2.5699,-2.5795,-2.5875,-2.5984,-2.6087,-2.6144,-2.6221,-2.6315,-2.6452,-2.6427,-2.6487,-2.65,-2.6574,-2.6708,-2.6538,-2.654,-2.6569,-2.6887,-2.6909,-2.6936,-2.6701,-2.6706,-2.6709,-2.688,0,-2.5317,-2.5419,-2.55,-2.561,-2.5677,-2.5788,-2.5828,-2.5893,-2.5899,-2.5935,-2.6072,-2.6139,-2.6244,-2.6283,-2.6291,-2.6447,-2.6427,-2.64,-2.6341,-2.6467,-2.6524,-2.6548,-2.6252,-2.625,-2.6249,-2.6248,0,0,-2.5102,-2.525,-2.5273,-2.5381,-2.544,-2.5432,-2.5547,-2.5602,-2.5716,-2.5757,-2.5723,-2.5928,-2.5984,-2.6147,-2.6189,-2.6231,-2.6263,-2.6218,-2.6406,-2.6423,-2.644,-2.6501,-2.6524,-2.6246,-2.6245,-2.6245,-2.6245,0,-2.5045,-2.5102,-2.5215,-2.5274,-2.5362,-2.5395,-2.5421,-2.5508,-2.5536,-2.567,-2.5663,-2.575,-2.5912,-2.5974,-2.6026,-2.6198,-2.6189,-2.6227,-2.6307,-2.6392,-2.6411,-2.6428,-2.6491,-2.6513,-2.6241,-2.6242,-2.6242,0,-2.4895,-2.4958,-2.5017,-2.5149,-2.5207,-2.5305,-2.5253,-2.5359,-2.5432,-2.5419,-2.5553,-2.5596,-2.5681,-2.5829,-2.5896,-2.5869,-2.612,-2.6047,-2.6056,-2.6065,-2.6149,-2.6172,-2.6192,-2.5924,-2.5923,-2.5922,0,0,-2.484,-2.4936,-2.5013,-2.514,-2.5177,-2.5227,-2.5283,-2.5296,-2.5373,-2.5403,-2.5459,-2.5534,-2.5628,-2.5691,-2.5782,-2.5938,-2.5959,-2.6006,-2.6021,-2.6033,-2.6049,-2.6136,-2.6159,-2.5917,-2.5917,-2.5917,0,0,-2.4815,-2.4909,-2.4903,-2.5055,-2.5128,-2.5213,-2.529,-2.5284,-2.537,-2.5362,-2.539,-2.5411,-2.555,-2.5592,-2.5524,-2.5762,-2.5703,-2.572,-2.573,-2.5749,-2.5764,-2.5752,-2.5481,0,0,0,0,0,-2.4778,-2.4897,-2.4891,-2.4922,-2.509,-2.5217,-2.5238,-2.5264,-2.5222,-2.5281,-2.5327,-2.5313,-2.5561,-2.5501,-2.5532,-2.5609,-2.5856,-2.5867,-2.5877,-2.5926,-2.5946,-2.5963,0,0,0,0,0,0,-2.479,-2.4829,-2.4888,-2.4977,-2.5015,-2.5213,-2.5147,-2.5157,-2.5216,-2.5211,-2.5304,-2.5316,-2.534,-2.5487,-2.5514,-2.5587,-2.5472,-2.586,-2.5869,-2.5878,-2.5933,-2.5949,-2.5963,0,0,0,0,0,-2.48,-2.4831,-2.5093,-2.4976,-2.5009,-2.5071,-2.5142,-2.5151,-2.5197,-2.5268,-2.5278,-2.5211,-2.5341,-2.5366,-2.5503,-2.5574,-2.5453,-2.5463,-2.5866,-2.5873,-2.588,-2.5941,0,0,0,0,0,0,-2.4808,-2.484,-2.5101,-2.5112,-2.4933,-2.5061,-2.5082,-2.5145,-2.525,-2.5262,-2.5175,-2.517,-2.5344,-2.5362,-2.5382,-2.5568,-2.5437,-2.5448,-2.5454,-2.5871,-2.5877,-2.5882,0,0,0,0,0,0,-2.4823,-2.4849,-2.5106,-2.5051,-2.5055,-2.5051,-2.507,-2.519,-2.5251,-2.5151,-2.515,-2.5171,-2.5315,-2.5361,-2.5375,-2.5562,-2.5426,-2.5435,-2.5442,-2.5447,-2.5876,-2.5881,0,0,0,0,0,0,-2.4835,-2.4857,-2.5048,-2.5052,-2.5056,-2.5181,-2.5157,-2.5328,-2.5203,-2.5146,-2.5192,-2.5188,-2.5313,-2.5329,-2.5371,-2.5551,-2.5559,-2.5426,-2.5433,-2.5437,-2.5441,0,0,0,0,0,0,0,-2.4844,-2.4689,-2.5035,-2.5052,-2.5056,-2.5213,-2.5216,-2.5219,-2.5202,-2.5198,-2.5193,-2.519,-2.5369,-2.538,-2.5391,-2.5543,0,0,-2.5425,-2.543,0,0,0,0,0,0,0,0,-2.468,-2.4687,-2.5036,-2.5038,-2.504,-2.5214,-2.5216,-2.5219,-2.5201,-2.5198,-2.5194,-2.5191,-2.5372,-2.5381,-2.539,0,0,0,0,0,0,0,0,0,0,0,0,0,0,0,-2.5036,-2.5038,0,-2.5214,-2.5216,-2.5218,-2.5201,-2.5198,-2.5195,-2.5192,-2.5374,-2.5382,-2.5389,0,0,0,0,0,0,0,0,0,0,0,0,0,0,0,0,0,0,0,0,0,0,0,0,0,0,0,0,0,0,0,0,0,0,0,0,0,0,0,0,0,0,0,0,0,0,0,0,0,0,0,0,0,0,0,0,0,0,0,0,0,0,0,0,0,0,0,0,0]}],[{"header":{"parameterUnit":"kt","parameterCategory":2,"dx":1,"dy":1,"la1":30.253999710083008,"la2":30.299108505249023,"lo1":-89.0895004272461,"lo2":-89.04439544677734,"nx":28,"ny":28,"refTime":"2022-09-18T21:00:00:Z","depth":0,"parameterNumber":2,"parameterNumberName":"V-component_of_WINDS"},"data":[-4.8939,-4.8969,-4.8944,-4.8968,-4.8949,-4.8962,-4.8958,-4.8951,-4.8939,-4.8951,-4.8954,-4.8932,-4.8911,-4.8909,-4.8911,-4.8901,-4.8905,-4.8934,-4.8918,-4.8807,-4.879,-4.8774,-4.8764,-4.8935,-4.8935,-4.9037,-4.9038,-4.9038,-4.8861,-4.8842,-4.8847,-4.8835,-4.8839,-4.8795,-4.8782,-4.8789,-4.8801,-4.8787,-4.8788,-4.8797,-4.8801,-4.8769,-4.8769,-4.8784,-4.8763,-4.8785,-4.8784,-4.8782,-4.8662,-4.8652,-4.8802,-4.8802,-4.8802,-4.8802,-4.8802,-4.8802,-4.8712,-4.8732,-4.8709,-4.8714,-4.87,-4.8692,-4.8707,-4.8679,-4.8684,-4.8679,-4.8648,-4.8662,-4.8643,-4.863,-4.8619,-4.863,-4.8601,-4.8617,-4.8622,-4.8627,-4.8636,-4.8495,-4.8629,-4.8628,-4.8628,-4.8627,-4.8627,0,-4.8596,-4.8573,-4.8575,-4.857,-4.8572,-4.8566,-4.8556,-4.8565,-4.8507,-4.8514,-4.8522,-4.8522,-4.8522,-4.8527,-4.8521,-4.8506,-4.8462,-4.8455,-4.8466,-4.8482,-4.8497,-4.849,-4.8297,-4.8451,-4.8449,-4.8448,-4.8447,-4.8447,-4.8444,-4.847,-4.8433,-4.8438,-4.8426,-4.8436,-4.8436,-4.8383,-4.8386,-4.8367,-4.8387,-4.839,-4.839,-4.8408,-4.8375,-4.8376,-4.8354,-4.8416,-4.8354,-4.8368,-4.8356,-4.8355,-4.8358,-4.843,-4.8432,-4.8434,-4.8435,0,-4.8362,-4.8318,-4.8349,-4.831,-4.8301,-4.8331,-4.8297,-4.8314,-4.8285,-4.8305,-4.8306,-4.826,-4.8269,-4.8225,-4.8227,-4.8204,-4.8255,-4.8233,-4.8261,-4.8254,-4.8306,-4.8302,-4.8479,-4.85,-4.8321,-4.8323,-4.8324,0,-4.8216,-4.8252,-4.8185,-4.8205,-4.8243,-4.8188,-4.8227,-4.8205,-4.8186,-4.8201,-4.8143,-4.8159,-4.81,-4.811,-4.8076,-4.811,-4.811,-4.8094,-4.8085,-4.81,-4.8102,-4.8101,-4.8094,-4.8062,-4.8061,-4.8061,-4.806,0,-4.8092,-4.8097,-4.8129,-4.8124,-4.8085,-4.8101,-4.8086,-4.8064,-4.8065,-4.806,-4.806,-4.8058,-4.8057,-4.8057,-4.8013,-4.7973,-4.8053,-4.7988,-4.8037,-4.8038,-4.8057,-4.8057,-4.8224,-4.8059,-4.8059,-4.8058,-4.8058,0,-4.7967,-4.7961,-4.8014,-4.798,-4.7984,-4.8006,-4.7999,-4.8007,-4.7988,-4.7967,-4.7963,-4.7918,-4.7943,-4.7882,-4.7916,-4.7875,-4.7878,-4.7865,-4.7868,-4.7868,-4.7801,-4.7902,-4.8065,-4.8081,-4.7868,-4.7866,-4.7865,0,-4.7838,-4.7879,-4.7831,-4.7883,-4.7896,-4.7828,-4.7851,-4.7836,-4.781,-4.7818,-4.7789,-4.7799,-4.7744,-4.7741,-4.7764,-4.7735,-4.7788,-4.7727,-4.7741,-4.7742,-4.7748,-4.7897,-4.7933,-4.8034,-4.7844,-4.7846,-4.7848,0,-4.7731,-4.7682,-4.7694,-4.7685,-4.7654,-4.7665,-4.7691,-4.7688,-4.7696,-4.7684,-4.7706,-4.7718,-4.7677,-4.7673,-4.7636,-4.7662,-4.7751,-4.7615,-4.7613,-4.7641,-4.7829,-4.7863,-4.788,-4.7721,-4.7723,-4.7725,-4.7831,0,-4.7554,-4.7568,-4.76,-4.7581,-4.7582,-4.7611,-4.7562,-4.757,-4.7534,-4.7505,-4.7536,-4.7511,-4.7509,-4.7516,-4.7481,-4.7553,-4.7535,-4.7491,-4.7429,-4.7527,-4.7561,-4.7575,-4.7382,-4.738,-4.7379,-4.7377,0,0,-4.7441,-4.746,-4.7405,-4.7428,-4.7425,-4.7353,-4.739,-4.7379,-4.7359,-4.7359,-4.7324,-4.7338,-4.732,-4.7362,-4.7388,-4.7387,-4.7396,-4.7363,-4.7481,-4.7492,-4.7503,-4.754,-4.7555,-4.7374,-4.7373,-4.7373,-4.7372,0,-4.7365,-4.7346,-4.7381,-4.7367,-4.7344,-4.7312,-4.732,-4.7285,-4.7268,-4.7297,-4.7238,-4.725,-4.7263,-4.7252,-4.7247,-4.7357,-4.7312,-4.736,-4.7435,-4.7464,-4.7478,-4.7491,-4.753,-4.7545,-4.7368,-4.7368,-4.7368,0,-4.7252,-4.7225,-4.7236,-4.7225,-4.721,-4.7225,-4.7147,-4.7166,-4.7176,-4.7097,-4.7127,-4.7107,-4.7088,-4.7133,-4.7152,-4.712,-4.7239,-4.7193,-4.7203,-4.7204,-4.723,-4.7247,-4.7262,-4.7062,-4.7061,-4.7061,0,0,-4.7194,-4.7206,-4.716,-4.7205,-4.72,-4.7151,-4.7154,-4.7118,-4.7101,-4.7094,-4.7067,-4.7054,-4.706,-4.7066,-4.7069,-4.7126,-4.7118,-4.7157,-4.7171,-4.7183,-4.7191,-4.722,-4.7237,-4.7057,-4.7057,-4.7057,0,0,-4.7166,-4.7114,-4.708,-4.7126,-4.7111,-4.707,-4.71,-4.7057,-4.7055,-4.7046,-4.6987,-4.698,-4.7022,-4.7005,-4.6967,-4.7046,-4.6986,-4.6994,-4.7056,-4.7073,-4.7087,-4.7091,-4.6884,0,0,0,0,0,-4.7063,-4.712,-4.709,-4.709,-4.7076,-4.7086,-4.7084,-4.7036,-4.6994,-4.7019,-4.6989,-4.6941,-4.6972,-4.6937,-4.6938,-4.6982,-4.7015,-4.7022,-4.703,-4.7123,-4.7142,-4.7158,0,0,0,0,0,0,-4.7063,-4.7063,-4.7088,-4.705,-4.7046,-4.7084,-4.7002,-4.699,-4.699,-4.698,-4.6948,-4.694,-4.6899,-4.6932,-4.6935,-4.6977,-4.6883,-4.7018,-4.7024,-4.703,-4.7129,-4.7145,-4.7158,0,0,0,0,0,-4.7062,-4.7062,-4.7052,-4.7048,-4.7045,-4.6994,-4.6999,-4.6989,-4.6988,-4.6942,-4.6932,-4.6951,-4.6902,-4.69,-4.6933,-4.6977,-4.6881,-4.6882,-4.7022,-4.7027,-4.7032,-4.7137,0,0,0,0,0,0,-4.7062,-4.7053,-4.705,-4.7047,-4.7022,-4.6991,-4.6984,-4.6988,-4.6949,-4.694,-4.6942,-4.6935,-4.6904,-4.6902,-4.6902,-4.698,-4.6879,-4.688,-4.6881,-4.7026,-4.703,-4.7033,0,0,0,0,0,0,-4.7053,-4.7052,-4.7049,-4.7019,-4.7012,-4.6988,-4.6982,-4.7004,-4.6949,-4.6951,-4.6943,-4.6939,-4.6905,-4.6905,-4.6904,-4.6939,-4.6878,-4.6879,-4.688,-4.688,-4.7029,-4.7032,0,0,0,0,0,0,-4.7051,-4.705,-4.7019,-4.7014,-4.7008,-4.6974,-4.7006,-4.6995,-4.6923,-4.6954,-4.6915,-4.6911,-4.6909,-4.6907,-4.6905,-4.6941,-4.6939,-4.6878,-4.6879,-4.6879,-4.688,0,0,0,0,0,0,0,-4.705,-4.7069,-4.7066,-4.701,-4.7005,-4.7022,-4.7021,-4.702,-4.6922,-4.6919,-4.6916,-4.6913,-4.6872,-4.6873,-4.6874,-4.6943,0,0,-4.6878,-4.6879,0,0,0,0,0,0,0,0,-4.7068,-4.7069,-4.7066,-4.7066,-4.7065,-4.7022,-4.7021,-4.7021,-4.6921,-4.6919,-4.6917,-4.6914,-4.6872,-4.6873,-4.6874,0,0,0,0,0,0,0,0,0,0,0,0,0,0,0,-4.7066,-4.7066,0,-4.7022,-4.7021,-4.7021,-4.6921,-4.6919,-4.6917,-4.6915,-4.6873,-4.6873,-4.6874,0,0,0,0,0,0,0,0,0,0,0,0,0,0,0,0,0,0,0,0,0,0,0,0,0,0,0,0,0,0,0,0,0,0,0,0,0,0,0,0,0,0,0,0,0,0,0,0,0,0,0,0,0,0,0,0,0,0,0,0,0,0,0,0,0,0,0,0,0]}]]]